Location: Ellingshausen
(50.5460°N, 10.4723°E)
Time: 09:46:09
(UTC+00:00)

Cosmos 1140 Rocket - Visible Passes

Search period start: 10 April 2026 00:00
Search period end: 20 April 2026 00:00
Orbit: 739 x 762 km, 74.1° (Epoch: 10 April)

Date Brightness Start Highest point End Pass type
(mag) Time Alt. Az. Time Alt. Az. Time Alt. Az.
10 Apr 5.2 21:05:26 10° N 21:09:18 21° NE 21:10:22 19° ENE visible
10 Apr 4.2 22:46:28 10° NNW 22:50:16 49° NNW 22:50:16 49° NNW visible
11 Apr 5.7 20:23:48 10° N 20:26:29 14° NE 20:28:51 11° ENE visible
11 Apr 3.9 22:04:13 10° NNW 22:08:44 55° NNE 22:08:44 55° NNE visible
11 Apr 5.5 23:46:37 10° NW 23:48:38 18° WNW 23:48:38 18° WNW visible
12 Apr 4.4 21:22:06 10° NNW 21:26:52 36° NE 21:27:13 35° ENE visible
12 Apr 4.8 23:03:49 10° NW 23:07:07 32° WNW 23:07:07 32° WNW visible
13 Apr 5.0 20:40:08 10° N 20:44:14 23° NE 20:45:43 20° ENE visible
13 Apr 3.9 22:21:19 10° NNW 22:25:37 58° NW 22:25:37 58° NW visible
14 Apr 5.5 19:58:24 10° N 20:01:27 15° NE 20:04:14 11° ENE visible
14 Apr 3.5 21:39:01 10° NNW 21:44:08 68° ENE 21:44:08 68° ENE visible
14 Apr 5.5 23:21:40 10° NW 23:24:02 18° WNW 23:24:02 18° WNW visible
15 Apr 5.8 19:17:31 10° NNE 19:18:31 10° NNE 19:19:32 10° NE visible
15 Apr 4.1 20:56:51 10° NNW 21:01:45 41° ENE 21:02:40 37° E visible
15 Apr 4.7 22:38:44 10° NW 22:42:34 32° W 22:42:34 32° W visible
16 Apr 4.9 20:14:51 10° N 20:19:09 26° NE 20:21:14 20° E visible
16 Apr 3.6 21:56:10 10° NNW 22:01:07 60° WSW 22:01:07 60° WSW visible
17 Apr 5.4 19:33:02 10° N 19:36:24 17° NE 19:39:46 10° E visible
17 Apr 3.3 21:13:49 10° NNW 21:19:00 79° ENE 21:19:42 65° SE visible
17 Apr 5.5 22:56:47 10° NW 22:59:36 17° W 22:59:36 17° W visible
18 Apr 5.7 18:51:43 10° NNE 18:53:31 12° NE 18:55:19 10° NE visible
18 Apr 4.0 20:31:37 10° NNW 20:36:36 46° ENE 20:38:18 34° ESE visible
18 Apr 4.7 22:13:40 10° NW 22:18:05 29° W 22:18:12 29° WSW visible
19 Apr 4.7 19:49:33 10° N 19:54:03 29° NE 19:56:55 18° E visible
19 Apr 3.8 21:31:01 10° NNW 21:36:01 52° WSW 21:36:49 47° SW visible
